This is the latest recevied weather packets stored in our database for station/object KC1TEM-13. If no packets are shown the sender has not sent any weather packets the latest 10 day(s).
| Time | Temp. | Humidity | Pressure | Rain* | Wind** | Luminosity | Snow |
|---|---|---|---|---|---|---|---|
| 1777980167 | 15° C | 61% | 1009.7 hPa | 0 mm | - | 213 W/m² | - |
| 1777979867 | 15° C | 62% | 1009.7 hPa | 0 mm | - | 188 W/m² | - |
| 1777979563 | 14.44° C | 63% | 1009.5 hPa | 0 mm | - | 113 W/m² | - |
| 1777979259 | 13.89° C | 64% | 1009.6 hPa | 0 mm | - | 69 W/m² | - |
| 1777978957 | 13.89° C | 65% | 1009.5 hPa | 0 mm | - | 61 W/m² | - |
| 1777978653 | 13.89° C | 65% | 1009.4 hPa | 0 mm | - | 53 W/m² | - |
| 1777978348 | 13.33° C | 65% | 1009.2 hPa | 0 mm | - | 46 W/m² | - |
| 1777978045 | 13.33° C | 66% | 1009.5 hPa | 0 mm | - | 41 W/m² | - |
| 1777977743 | 13.33° C | 66% | 1009.5 hPa | 0 mm | - | 37 W/m² | - |
| 1777977439 | 13.33° C | 66% | 1009.6 hPa | 0 mm | - | 35 W/m² | - |
| 1777977137 | 12.78° C | 66% | 1009.6 hPa | 0 mm | - | 39 W/m² | - |
| 1777976834 | 12.78° C | 66% | 1009.5 hPa | 0 mm | - | 33 W/m² | - |
| 1777976532 | 12.78° C | 66% | 1009.6 hPa | 0 mm | - | 25 W/m² | - |
| 1777976231 | 12.78° C | 66% | 1009.6 hPa | 0 mm | - | 21 W/m² | - |
| 1777975926 | 12.78° C | 66% | 1009.5 hPa | 0 mm | - | 17 W/m² | - |
| 1777975623 | 12.78° C | 66% | 1009.5 hPa | 0 mm | - | 13 W/m² | - |
| 1777975320 | 12.78° C | 65% | 1009.4 hPa | 0 mm | - | 12 W/m² | - |
| 1777975015 | 12.78° C | 65% | 1009.4 hPa | 0 mm | - | 9 W/m² | - |
| 1777974714 | 12.78° C | 66% | 1009.5 hPa | 0 mm | - | 7 W/m² | - |
| 1777974409 | 12.78° C | 65% | 1009.5 hPa | 0 mm | - | 5 W/m² | - |
| 1777974105 | 12.78° C | 66% | 1009.5 hPa | 0 mm | - | 4 W/m² | - |
| 1777973802 | 12.22° C | 66% | 1009.5 hPa | 0 mm | - | 3 W/m² | - |
| 1777973499 | 12.22° C | 66% | 1009.5 hPa | 0 mm | - | 2 W/m² | - |
| 1777973196 | 12.22° C | 66% | 1009.6 hPa | 0 mm | - | 1 W/m² | - |
| 1777972895 | 12.22° C | 66% | 1009.6 hPa | 0 mm | - | 0 W/m² | - |
* Rain latest hour (hover to see other rain measurements)
** Current wind speed in m/s (hover to see current wind gust speed)